This is the latest recevied weather packets stored in our database for station/object DB0OHA-13. If no packets are shown the sender has not sent any weather packets the latest 10 day(s).
| Time | Temp. | Humidity | Pressure | Rain* | Wind** | Luminosity | Snow |
|---|---|---|---|---|---|---|---|
| 1777585273 | 8.89° C | 63% | 1029.1 hPa | 0 mm | - | 0 W/m² | - |
| 1777584673 | 8.89° C | 63% | 1029.1 hPa | 0 mm | - | 0 W/m² | - |
| 1777583473 | 9.44° C | 63% | 1029.1 hPa | 0 mm | - | 0 W/m² | - |
| 1777582872 | 9.44° C | 63% | 1029.2 hPa | 0 mm | - | 0 W/m² | - |
| 1777582273 | 9.44° C | 64% | 1029.2 hPa | 0 mm | - | 0 W/m² | - |
| 1777581673 | 9.44° C | 63% | 1029.2 hPa | 0 mm | - | 0 W/m² | - |
| 1777581073 | 9.44° C | 63% | 1029.2 hPa | 0 mm | - | 0 W/m² | - |
| 1777580473 | 9.44° C | 62% | 1029.1 hPa | 0 mm | - | 0 W/m² | - |
| 1777579872 | 10° C | 62% | 1029.2 hPa | 0 mm | - | 0 W/m² | - |
| 1777579272 | 10° C | 62% | 1029 hPa | 0 mm | - | 0 W/m² | - |
| 1777578672 | 10° C | 61% | 1029 hPa | 0 mm | - | 0 W/m² | - |
| 1777578072 | 10.56° C | 60% | 1029.1 hPa | 0 mm | - | 0 W/m² | - |
| 1777576872 | 10.56° C | 59% | 1028.9 hPa | 0 mm | - | 0 W/m² | - |
| 1777576272 | 11.11° C | 57% | 1029 hPa | 0 mm | - | 0 W/m² | - |
| 1777575672 | 11.67° C | 57% | 1028.9 hPa | 0 mm | - | 0 W/m² | - |
| 1777575071 | 12.22° C | 55% | 1028.9 hPa | 0 mm | - | 0 W/m² | - |
| 1777573871 | 13.89° C | 49% | 1028.9 hPa | 0 mm | - | 11 W/m² | - |
| 1777573271 | 13.89° C | 49% | 1028.7 hPa | 0 mm | - | 18 W/m² | - |
| 1777572671 | 14.44° C | 48% | 1028.7 hPa | 0 mm | - | 29 W/m² | - |
| 1777572071 | 14.44° C | 47% | 1028.5 hPa | 0 mm | - | 43 W/m² | - |
| 1777571471 | 15° C | 49% | 1028.5 hPa | 0 mm | - | 70 W/m² | - |
| 1777570871 | 15° C | 47% | 1028.6 hPa | 0 mm | - | 97 W/m² | - |
| 1777570271 | 15.56° C | 47% | 1028.6 hPa | 0 mm | - | 119 W/m² | - |
| 1777569671 | 15.56° C | 46% | 1028.5 hPa | 0 mm | - | 144 W/m² | - |
| 1777569070 | 15.56° C | 46% | 1028.6 hPa | 0 mm | - | 140 W/m² | - |
* Rain latest hour (hover to see other rain measurements)
** Current wind speed in m/s (hover to see current wind gust speed)